Location: Ab? ar R?sh Ba?r?
(24.1861°N, 32.8847°E)
Time: 12:35:01
(UTC+00:00)

H-2A R/B - Pass Details

Date: 06 June 2022
Orbit: 576 x 653 km, 98.5° (Epoch: 28 June)

Event Time Altitude Azimuth Distance (km) Brightness Sun altitude
Rises 18:48:30 0° 345° (NNW) 2,818 6.3 -26.1°
Reaches altitude 10° 18:51:34 10° 320° (NW) 1,929 5.6 -26.6°
Maximum altitude 18:53:43 14° 289° (WNW) 1,696 5.0 -27.0°
Drops below altitude 10° 18:55:53 10° 258° (WSW) 1,948 5.0 -27.3°
Sets 18:59:01 0° 233° (SW) 2,867 5.6 -27.8°
